Hourly Weather Rudawiec

Today, 16 June, Wednesday

Time Temperature Precipitation Wind Pressure Humidity
00:00 +12°C° 0 mm 0 mps 728 mmHg 86%
01:00 +12°C° 0 mm 0 mps 728 mmHg 85%
02:00 +11°C° 0 mm 0 mps 728 mmHg 85%
03:00 +11°C° 0 mm 0 mps 728 mmHg 85%
04:00 +11°C° 0 mm 0 mps 728 mmHg 85%
05:00 +13°C° 0 mm 0 mps 728 mmHg 79%
06:00 +16°C° 0 mm 1 mps 729 mmHg 74%
07:00 +19°C° 0 mm 1 mps 729 mmHg 69%
08:00 +20°C° 0 mm 1 mps 729 mmHg 66%
09:00 +21°C° 0 mm 2 mps 729 mmHg 64%
10:00 +23°C° 0 mm 2 mps 730 mmHg 61%
11:00 +24°C° 0 mm 2 mps 729 mmHg 59%
12:00 +24°C° 0 mm 2 mps 729 mmHg 57%
13:00 +25°C° 0 mm 2 mps 729 mmHg 55%
14:00 +25°C° 0 mm 2 mps 729 mmHg 57%
15:00 +24°C° 0 mm 2 mps 729 mmHg 59%
16:00 +24°C° 0 mm 2 mps 729 mmHg 62%
17:00 +23°C° 0.1 mm 2 mps 729 mmHg 68%
18:00 +21°C° 0.1 mm 2 mps 729 mmHg 74%
19:00 +19°C° 0.1 mm 2 mps 729 mmHg 81%
20:00 +19°C° 0 mm 1 mps 729 mmHg 84%
21:00 +18°C° 0 mm 1 mps 729 mmHg 87%
22:00 +16°C° 0 mm 1 mps 730 mmHg 91%
23:00 +15°C° 0 mm 1 mps 730 mmHg 91%

Tomorrow, 17 June, Thursday

Time Temperature Precipitation Wind Pressure Humidity
00:00 +15°C° 0 mm 1 mps 730 mmHg 92%
01:00 +13°C° 0 mm 0 mps 730 mmHg 92%
02:00 +14°C° 0 mm 1 mps 730 mmHg 93%
03:00 +14°C° 0 mm 1 mps 730 mmHg 94%
04:00 +14°C° 0 mm 1 mps 730 mmHg 94%
05:00 +15°C° 0 mm 1 mps 730 mmHg 89%
06:00 +17°C° 0 mm 2 mps 730 mmHg 83%
07:00 +19°C° 0 mm 2 mps 731 mmHg 78%
08:00 +20°C° 0 mm 2 mps 731 mmHg 71%
09:00 +21°C° 0 mm 3 mps 731 mmHg 64%
10:00 +24°C° 0 mm 3 mps 731 mmHg 57%
11:00 +24°C° 0 mm 3 mps 731 mmHg 54%
12:00 +25°C° 0 mm 4 mps 731 mmHg 51%
13:00 +26°C° 0 mm 4 mps 731 mmHg 48%
14:00 +25°C° 0 mm 4 mps 731 mmHg 51%
15:00 +25°C° 0 mm 4 mps 731 mmHg 55%
16:00 +25°C° 0 mm 4 mps 731 mmHg 58%
17:00 +23°C° 0 mm 4 mps 731 mmHg 66%
18:00 +21°C° 0 mm 3 mps 731 mmHg 74%
19:00 +20°C° 0 mm 3 mps 731 mmHg 81%
20:00 +19°C° 0 mm 2 mps 731 mmHg 85%
21:00 +18°C° 0 mm 2 mps 731 mmHg 89%
22:00 +16°C° 0 mm 2 mps 731 mmHg 93%
23:00 +16°C° 0 mm 1 mps 731 mmHg 93%

Day after tomorrow, 18 June, Friday

Time Temperature Precipitation Wind Pressure Humidity
00:00 +16°C° 0 mm 1 mps 731 mmHg 94%
01:00 +16°C° 0 mm 1 mps 730 mmHg 94%
02:00 +15°C° 0 mm 1 mps 730 mmHg 94%
03:00 +15°C° 0 mm 1 mps 730 mmHg 94%
04:00 +15°C° 0 mm 1 mps 730 mmHg 94%
05:00 +17°C° 0 mm 2 mps 730 mmHg 88%
06:00 +19°C° 0 mm 3 mps 731 mmHg 83%
07:00 +21°C° 0 mm 4 mps 731 mmHg 77%
08:00 +23°C° 0 mm 5 mps 731 mmHg 71%
09:00 +25°C° 0 mm 5 mps 731 mmHg 64%
10:00 +27°C° 0 mm 5 mps 731 mmHg 58%
11:00 +27°C° 0 mm 5 mps 730 mmHg 57%
12:00 +28°C° 0 mm 5 mps 730 mmHg 55%
13:00 +29°C° 0 mm 5 mps 730 mmHg 54%
14:00 +28°C° 0 mm 5 mps 730 mmHg 57%
15:00 +28°C° 0 mm 5 mps 730 mmHg 59%
16:00 +27°C° 0 mm 5 mps 730 mmHg 62%
17:00 +26°C° 0 mm 5 mps 730 mmHg 68%
18:00 +25°C° 0 mm 5 mps 730 mmHg 73%
19:00 +22°C° 0 mm 4 mps 730 mmHg 78%
20:00 +21°C° 0 mm 4 mps 730 mmHg 82%
21:00 +20°C° 0 mm 3 mps 730 mmHg 86%
22:00 +19°C° 0 mm 3 mps 730 mmHg 89%
23:00 +18°C° 0 mm 3 mps 730 mmHg 91%

19 June, Saturday

Time Temperature Precipitation Wind Pressure Humidity
00:00 +18°C° 0 mm 2 mps 730 mmHg 92%
01:00 +17°C° 0 mm 2 mps 730 mmHg 94%
02:00 +17°C° 0 mm 2 mps 729 mmHg 94%
03:00 +16°C° 0 mm 2 mps 729 mmHg 94%
04:00 +16°C° 0 mm 2 mps 729 mmHg 94%
05:00 +18°C° 0 mm 3 mps 730 mmHg 87%
06:00 +20°C° 0 mm 4 mps 730 mmHg 80%
07:00 +22°C° 0 mm 4 mps 730 mmHg 73%
08:00 +23°C° 0 mm 5 mps 730 mmHg 66%
09:00 +25°C° 0 mm 5 mps 730 mmHg 60%
10:00 +27°C° 0 mm 6 mps 730 mmHg 53%
11:00 +27°C° 0 mm 6 mps 730 mmHg 53%
12:00 +28°C° 0 mm 6 mps 730 mmHg 53%
13:00 +28°C° 0 mm 6 mps 730 mmHg 52%
14:00 +27°C° 0 mm 6 mps 730 mmHg 55%
15:00 +27°C° 0 mm 5 mps 730 mmHg 58%
16:00 +27°C° 0 mm 5 mps 730 mmHg 61%
17:00 +25°C° 0 mm 5 mps 730 mmHg 68%
18:00 +22°C° 0 mm 4 mps 730 mmHg 75%
19:00 +21°C° 0 mm 4 mps 730 mmHg 82%
20:00 +19°C° 0 mm 3 mps 730 mmHg 86%
21:00 +18°C° 0 mm 3 mps 729 mmHg 91%
22:00 +17°C° 0 mm 2 mps 729 mmHg 95%
23:00 +17°C° 0 mm 2 mps 729 mmHg 96%

20 June, Sunday

Time Temperature Precipitation Wind Pressure Humidity
00:00 +16°C° 0 mm 2 mps 729 mmHg 96%
01:00 +16°C° 0 mm 2 mps 729 mmHg 96%
02:00 +16°C° 0 mm 2 mps 729 mmHg 96%
03:00 +15°C° 0 mm 2 mps 729 mmHg 96%
04:00 +15°C° 0 mm 2 mps 729 mmHg 96%
05:00 +17°C° 0 mm 2 mps 729 mmHg 89%
06:00 +19°C° 0 mm 2 mps 729 mmHg 82%
07:00 +21°C° 0 mm 2 mps 729 mmHg 75%
08:00 +22°C° 0 mm 3 mps 729 mmHg 69%
09:00 +25°C° 0 mm 3 mps 729 mmHg 63%
10:00 +27°C° 0 mm 4 mps 729 mmHg 57%
11:00 +27°C° 0 mm 4 mps 729 mmHg 54%
12:00 +28°C° 0 mm 4 mps 728 mmHg 52%
13:00 +29°C° 0 mm 4 mps 728 mmHg 49%
14:00 +28°C° 0 mm 4 mps 728 mmHg 54%
15:00 +28°C° 0 mm 5 mps 728 mmHg 58%
16:00 +27°C° 0 mm 5 mps 728 mmHg 63%
17:00 +26°C° 0 mm 5 mps 728 mmHg 68%
18:00 +23°C° 0 mm 5 mps 728 mmHg 73%
19:00 +22°C° 0 mm 4 mps 727 mmHg 79%
20:00 +21°C° 0 mm 4 mps 727 mmHg 83%
21:00 +20°C° 0 mm 3 mps 727 mmHg 88%
22:00 +18°C° 0 mm 3 mps 727 mmHg 92%
23:00 +18°C° 0 mm 2 mps 727 mmHg 93%

21 June, Monday

Time Temperature Precipitation Wind Pressure Humidity
00:00 +17°C° 0 mm 2 mps 727 mmHg 94%
01:00 +16°C° 0 mm 2 mps 727 mmHg 94%
02:00 +16°C° 0 mm 2 mps 727 mmHg 94%
03:00 +16°C° 0 mm 2 mps 727 mmHg 94%
04:00 +16°C° 0 mm 2 mps 727 mmHg 94%
05:00 +18°C° 0 mm 2 mps 727 mmHg 87%
06:00 +20°C° 0 mm 2 mps 727 mmHg 80%
07:00 +23°C° 0 mm 2 mps 727 mmHg 73%
08:00 +25°C° 0 mm 3 mps 727 mmHg 67%
09:00 +26°C° 0 mm 3 mps 727 mmHg 61%
10:00 +28°C° 0 mm 4 mps 727 mmHg 56%
11:00 +28°C° 0 mm 4 mps 726 mmHg 53%
12:00 +29°C° 0 mm 5 mps 726 mmHg 51%
13:00 +29°C° 0 mm 5 mps 726 mmHg 48%
14:00 +28°C° 0.1 mm 5 mps 726 mmHg 53%
15:00 +28°C° 0.1 mm 5 mps 725 mmHg 58%
16:00 +27°C° 0.1 mm 5 mps 725 mmHg 63%
17:00 +26°C° 0 mm 4 mps 725 mmHg 69%
18:00 +23°C° 0 mm 4 mps 725 mmHg 74%
19:00 +22°C° 0 mm 4 mps 725 mmHg 80%
20:00 +21°C° 0 mm 4 mps 724 mmHg 84%
21:00 +20°C° 0 mm 3 mps 724 mmHg 89%
22:00 +18°C° 0 mm 2 mps 724 mmHg 93%
23:00 +18°C° 0 mm 2 mps 723 mmHg 93%
Show more